H1 CPF 2 NER 2022 11 24 9 328 01 glonass116 H2 0907001 9116 36111 2022 11 24 0 0 0 2022 11 27 23 45 0 900 1 1 0 0 0 1 H9 10 0 59907 0.00000 0 16986083.206 8981857.078 -16779617.949 10 0 59907 900.00000 0 18279755.257 10410126.123 -14429236.090 10 0 59907 1800.00000 0 19463266.721 11517925.395 -11798613.152 10 0 59907 2700.00000 0 20476625.284 12306870.854 -8938810.059 10 0 59907 3600.00000 0 21263444.984 12791053.599 -5905354.477 10 0 59907 4500.00000 0 21773388.402 12996195.573 -2757163.202 10 0 59907 5400.00000 0 21964374.786 12958322.925 444603.130 10 0 59907 6300.00000 0 21804460.431 12722013.691 3637730.576 10 0 59907 7200.00000 0 21273311.288 12338294.485 6760164.039 10 0 59907 8100.00000 0 20363204.880 11862275.814 9751216.998 10 0 59907 9000.00000 0 19079518.416 11350626.747 12552754.758 10 0 59907 9900.00000 0 17440681.684 10858996.372 15110327.597 10 0 59907 10800.00000 0 15477595.897 10439491.753 17374231.425 10 0 59907 11700.00000 0 13232542.088 10138319.499 19300475.118 10 0 59907 12600.00000 0 10757624.203 9993691.041 20851635.597 10 0 59907 13500.00000 0 8112811.381 10034080.389 21997584.233 10 0 59907 14400.00000 0 5363660.596 10276908.121 22716070.730 10 0 59907 15300.00000 0 2578814.114 10727707.306 22993153.471 10 0 59907 16200.00000 0 -172624.636 11379806.682 22823468.369 10 0 59907 17100.00000 0 -2823728.264 12214544.666 22210331.303 10 0 59907 18000.00000 0 -5312286.714 13202005.431 21165672.350 10 0 59907 18900.00000 0 -7583147.790 14302246.399 19709803.167 10 0 59907 19800.00000 0 -9590260.554 15466965.845 17871021.958 10 0 59907 20700.00000 0 -11298337.392 16641540.788 15685063.559 10 0 59907 21600.00000 0 -12684066.691 17767349.671 13194405.057 10 0 59907 22500.00000 0 -13736826.621 18784282.324 10447440.218 10 0 59907 23400.00000 0 -14458871.407 19633331.527 7497538.621 10 0 59907 24300.00000 0 -14864983.567 20259157.028 4402007.714 10 0 59907 25200.00000 0 -14981607.988 20612513.760 1220978.021 10 0 59907 26100.00000 0 -14845505.460 20652441.650 -1983766.570 10 0 59907 27000.00000 0 -14501983.548 20348124.379 -5149990.410 10 0 59907 27900.00000 0 -14002780.393 19680338.319 -8216215.930 10 0 59907 28800.00000 0 -13403691.609 18642430.186 -11122917.773 10 0 59907 29700.00000 0 -12762041.113 17240781.784 -13813677.863 10 0 59907 30600.00000 0 -12134103.129 15494741.738 -16236278.897 10 0 59907 31500.00000 0 -11572584.411 13436026.544 -18343715.060 10 0 59907 32400.00000 0 -11124272.967 11107615.343 -20095100.702 10 0 59907 33300.00000 0 -10827952.331 8562183.879 -21456459.797 10 0 59907 34200.00000 0 -10712669.094 5860142.228 -22401381.363 10 0 59907 35100.00000 0 -10796426.459 3067357.139 -22911528.759 10 0 59907 36000.00000 0 -11085358.688 252652.695 -22976993.480 10 0 59907 36900.00000 0 -11573421.174 -2514807.768 -22596486.949 10 0 59907 37800.00000 0 -12242609.391 -5168150.904 -21777366.758 10 0 59907 38700.00000 0 -13063697.868 -7645325.680 -20535496.774 10 0 59907 39600.00000 0 -13997468.704 -9891434.571 -18894943.498 10 0 59907 40500.00000 0 -14996378.568 -11860767.755 -16887514.078 10 0 59907 41400.00000 0 -16006594.777 -13518456.589 -14552144.249 10 0 59907 42300.00000 0 -16970315.301 -14841678.176 -11934147.434 10 0 59907 43200.00000 0 -17828275.468 -15820361.549 -9084338.945 10 0 59907 44100.00000 0 -18522335.931 -16457366.617 -6058051.745 10 0 59907 45000.00000 0 -18998042.691 -16768128.992 -2914062.695 10 0 59907 45900.00000 0 -19207050.884 -16779786.321 286549.954 10 0 59907 46800.00000 0 -19109309.426 -16529823.571 3481595.433 10 0 59907 47700.00000 0 -18674913.549 -16064295.029 6608982.127 10 0 59907 48600.00000 0 -17885546.127 -15435698.757 9607927.988 10 0 59907 49500.00000 0 -16735445.989 -14700593.953 12420145.636 10 0 59907 50400.00000 0 -15231861.390 -13917062.512 14990978.470 10 0 59907 51300.00000 0 -13394968.562 -13142122.589 17270465.335 10 0 59907 52200.00000 0 -11257257.738 -12429203.882 19214312.848 10 0 59907 53100.00000 0 -8862411.580 -11825791.520 20784756.334 10 0 59907 54000.00000 0 -6263722.075 -11371338.163 21951292.850 10 0 59907 54900.00000 0 -3522111.268 -11095532.388 22691272.313 10 0 59907 55800.00000 0 -703837.715 -11016996.269 22990335.590 10 0 59907 56700.00000 0 2122016.553 -11142466.891 22842691.440 10 0 59907 57600.00000 0 4886174.734 -11466496.107 22251227.230 10 0 59907 58500.00000 0 7521800.988 -11971681.047 21227451.496 10 0 59907 59400.00000 0 9967034.449 -12629415.625 19791269.540 10 0 59907 60300.00000 0 12167316.979 -13401131.369 17970596.330 10 0 59907 61200.00000 0 14077418.613 -14239975.362 15800814.074 10 0 59907 62100.00000 0 15663077.304 -15092854.647 13324084.785 10 0 59907 63000.00000 0 16902185.567 -15902760.955 10588530.881 10 0 59907 63900.00000 0 17785475.445 -16611277.704 7647299.687 10 0 59907 64800.00000 0 18316674.253 -17161163.378 4557529.876 10 0 59907 65700.00000 0 18512125.733 -17498902.055 1379239.996 10 0 59907 66600.00000 0 18399893.593 -17577113.112 -1825839.031 10 0 59907 67500.00000 0 18018386.288 -17356717.977 -4995464.515 10 0 59907 68400.00000 0 17414561.927 -16808772.030 -8068092.014 10 0 59907 69300.00000 0 16641789.835 -15915883.836 -10984070.881 10 0 59907 70200.00000 0 15757459.653 -14673161.335 -13686801.880 10 0 59907 71100.00000 0 14820439.270 -13088644.473 -16123834.330 10 0 59907 72000.00000 0 13888489.038 -11183205.428 -18247881.490 10 0 59907 72900.00000 0 13015741.296 -8989919.792 -20017734.772 10 0 59907 73800.00000 0 12250351.170 -6552934.132 -21399059.529 10 0 59907 74700.00000 0 11632417.250 -3925876.346 -22365057.427 10 0 59907 75600.00000 0 11192259.190 -1169874.017 -22896983.221 10 0 59907 76500.00000 0 10949124.202 1648737.867 -22984506.404 10 0 59907 77400.00000 0 10910376.479 4460925.575 -22625911.073 10 0 59907 78300.00000 0 11071203.338 7197578.676 -21828130.356 10 0 59907 79200.00000 0 11414850.372 9792137.708 -20606614.647 10 0 59907 80100.00000 0 11913375.816 12183119.325 -18985035.893 10 0 59907 81000.00000 0 12528892.641 14316434.991 -16994833.208 10 0 59907 81900.00000 0 13215246.455 16147407.649 -14674607.913 10 0 59907 82800.00000 0 13920058.896 17642402.981 -12069379.131 10 0 59907 83700.00000 0 14587050.680 18780007.898 -9229713.732 10 0 59907 84600.00000 0 15158546.456 19551707.537 -6210746.973 10 0 59907 85500.00000 0 15578055.683 19962032.892 -3071112.666 10 0 59908 0.00000 0 15792820.201 20028173.424 128196.180 10 0 59908 900.00000 0 15756220.413 19779071.444 3325015.641 10 0 59908 1800.00000 0 15429937.410 19254036.918 6457220.235 10 0 59908 2700.00000 0 14785779.156 18500941.799 9463935.101 10 0 59908 3600.00000 0 13807092.236 17574070.451 12286722.592 10 0 59908 4500.00000 0 12489698.671 16531717.552 14870721.309 10 0 59908 5400.00000 0 10842317.153 15433635.321 17165714.784 10 0 59908 6300.00000 0 8886449.832 14338438.152 19127108.784 10 0 59908 7200.00000 0 6655738.373 13301074.371 20716798.119 10 0 59908 8100.00000 0 4194815.244 12370471.739 21903906.281 10 0 59908 9000.00000 0 1557697.261 11587455.786 22665383.818 10 0 59908 9900.00000 0 -1194212.341 10983028.363 22986454.145 10 0 59908 10800.00000 0 -3994430.917 10577078.451 22860898.544 10 0 59908 11700.00000 0 -6773917.310 10377579.017 22291175.141 10 0 59908 12600.00000 0 -9463702.431 10380303.204 21288369.770 10 0 59908 13500.00000 0 -11997520.982 10569071.350 19871979.763 10 0 59908 14400.00000 0 -14314335.636 10916517.995 18069534.809 10 0 59908 15300.00000 0 -16360649.328 11385346.265 15916062.071 10 0 59908 16200.00000 0 -18092510.197 11930016.475 13453405.747 10 0 59908 17100.00000 0 -19477126.366 12498797.514 10729413.970 10 0 59908 18000.00000 0 -20494023.919 13036094.203 7797008.748 10 0 59908 18900.00000 0 -21135700.539 13484952.118 4713156.894 10 0 59908 19800.00000 0 -21407748.348 13789633.728 1537761.955 10 0 59908 20700.00000 0 -21328441.677 13898156.631 -1667501.041 10 0 59908 21600.00000 0 -20927808.080 13764686.155 -4840385.140 10 0 59908 22500.00000 0 -20246222.529 13351680.721 -7919281.660 10 0 59908 23400.00000 0 -19332584.810 12631698.799 -10844417.095 10 0 59908 24300.00000 0 -18242157.546 11588790.590 -13559013.265 10 0 59908 25200.00000 0 -17034156.443 10219415.052 -16010388.068 10 0 59908 26100.00000 0 -15769194.475 8532842.968 -18150975.473 10 0 59908 27000.00000 0 -14506687.695 6551028.242 -19939245.245 10 0 59908 27900.00000 0 -13302331.530 4307951.842 -21340505.018 10 0 59908 28800.00000 0 -12205753.322 1848464.830 -22327569.627 10 0 59908 29700.00000 0 -11258439.139 -773322.356 -22881285.345 10 0 59908 30600.00000 0 -10492021.242 -3496038.505 -22990899.382 10 0 59908 31500.00000 0 -9926997.463 -6253356.063 -22654267.849 10 0 59908 32400.00000 0 -9571935.592 -8976506.886 -21877898.366 10 0 59908 33300.00000 0 -9423195.705 -11596905.964 -20676826.448 10 0 59908 34200.00000 0 -9465181.727 -14048775.121 -19074327.752 10 0 59908 35100.00000 0 -9671111.495 -16271658.638 -17101471.310 10 0 59908 36000.00000 0 -10004272.865 -18212726.971 -14796521.748 10 0 59908 36900.00000 0 -10419713.002 -19828773.175 -12204201.431 10 0 59908 37800.00000 0 -10866289.733 -21087819.328 -9374826.223 10 0 59908 38700.00000 0 -11288998.347 -21970266.212 -6363331.080 10 0 59908 39600.00000 0 -11631475.493 -22469538.400 -3228204.170 10 0 59908 40500.00000 0 -11838574.005 -22592198.046 -30350.133 10 0 59908 41400.00000 0 -11858899.277 -22357522.892 3168095.294 10 0 59908 42300.00000 0 -11647199.210 -21796566.577 6304975.780 10 0 59908 43200.00000 0 -11166505.775 -20950741.247 9319326.032 10 0 59908 44100.00000 0 -10389936.631 -19869982.607 12152560.436 10 0 59908 45000.00000 0 -9302079.622 -18610575.217 14749614.984 10 0 59908 45900.00000 0 -7899900.576 -17232730.100 17060019.912 10 0 59908 46800.00000 0 -6193134.959 -15798017.078 19038881.926 10 0 59908 47700.00000 0 -4204145.792 -14366760.150 20647756.834 10 0 59908 48600.00000 0 -1967252.649 -12995505.599 21855395.743 10 0 59908 49500.00000 0 472441.307 -11734669.093 22638350.656 10 0 59908 50400.00000 0 3060676.151 -10626460.379 22981427.988 10 0 59908 51300.00000 0 5736049.001 -9703172.188 22877981.625 10 0 59908 52200.00000 0 8432331.820 -8985904.559 22330040.184 10 0 59908 53100.00000 0 11080997.446 -8483777.403 21348266.182 10 0 59908 54000.00000 0 13613849.570 -8193663.619 19951748.049 10 0 59908 54900.00000 0 15965647.961 -8100453.164 18167628.942 10 0 59908 55800.00000 0 18076620.250 -8177836.287 16030579.409 10 0 59908 56700.00000 0 19894756.333 -8389572.278 13582123.926 10 0 59908 57600.00000 0 21377790.307 -8691189.670 10869834.084 10 0 59908 58500.00000 0 22494787.767 -9032045.662 7946403.966 10 0 59908 59400.00000 0 23227272.723 -9357657.296 4868625.592 10 0 59908 60300.00000 0 23569847.622 -9612205.426 1696284.300 10 0 59908 61200.00000 0 23530281.135 -9741105.092 -1509004.181 10 0 59908 62100.00000 0 23129060.761 -9693533.116 -4684992.109 10 0 59908 63000.00000 0 22398429.768 -9424805.462 -7770009.984 10 0 59908 63900.00000 0 21380949.647 -8898503.299 -10704164.694 10 0 59908 64800.00000 0 20127649.161 -8088257.316 -13430502.089 10 0 59908 65700.00000 0 18695838.307 -6979114.324 -15896111.273 10 0 59908 66600.00000 0 17146679.407 -5568427.814 -18053149.163 10 0 59908 67500.00000 0 15542617.473 -3866234.155 -19859765.700 10 0 59908 68400.00000 0 13944777.589 -1895097.686 -21280912.201 10 0 59908 69300.00000 0 12410438.145 310569.844 -22289017.614 10 0 59908 70200.00000 0 10990685.284 2705688.198 -22864520.232 10 0 59908 71100.00000 0 9728346.074 5236137.995 -22996245.022 10 0 59908 72000.00000 0 8656286.205 7840773.809 -22681619.684 10 0 59908 72900.00000 0 7796142.635 10453738.521 -21926725.463 10 0 59908 73800.00000 0 7157543.448 13006983.937 -20746181.683 10 0 59908 74700.00000 0 6737846.986 15432893.885 -19162865.987 10 0 59908 75600.00000 0 6522410.578 17666901.712 -17207475.228 10 0 59908 76500.00000 0 6485377.145 19649994.031 -14917934.885 10 0 59908 77400.00000 0 6590946.304 21330996.924 -12338667.795 10 0 59908 78300.00000 0 6795076.173 22668549.668 -9519735.774 10 0 59908 79200.00000 0 7047543.848 23632683.740 -6515870.207 10 0 59908 80100.00000 0 7294277.331 24205941.134 -3385410.205 10 0 59908 81000.00000 0 7479859.899 24383985.200 -189168.854 10 0 59908 81900.00000 0 7550100.507 24175678.429 3010750.304 10 0 59908 82800.00000 0 7454560.742 23602624.017 6152163.085 10 0 59908 83700.00000 0 7148930.612 22698190.666 9174016.793 10 0 59908 84600.00000 0 6597151.625 21506061.894 12017580.557 10 0 59908 85500.00000 0 5773196.429 20078371.219 14627590.096 10 0 59909 0.00000 0 4662428.782 18473502.145 16953324.089 10 0 59909 900.00000 0 3262484.697 16753644.865 18949592.149 10 0 59909 1800.00000 0 1583638.068 14982214.802 20577611.992 10 0 59909 2700.00000 0 -351367.745 13221238.559 21805763.111 10 0 59909 3600.00000 0 -2508015.026 11528818.974 22610199.348 10 0 59909 4500.00000 0 -4841206.013 9956784.438 22975310.121 10 0 59909 5400.00000 0 -7296907.414 8548620.601 22894021.539 10 0 59909 6300.00000 0 -9814177.540 7337770.344 22367931.901 10 0 59909 7200.00000 0 -12327492.289 6346372.438 21407279.180 10 0 59909 8100.00000 0 -14769273.963 5584490.734 20030741.237 10 0 59909 9000.00000 0 -17072518.268 5049865.172 18265072.603 10 0 59909 9900.00000 0 -19173410.617 4728194.059 16144584.718 10 0 59909 10800.00000 0 -21013823.244 4593934.748 13710479.514 10 0 59909 11700.00000 0 -22543589.409 4611588.090 11010048.958 10 0 59909 12600.00000 0 -23722460.058 4737411.722 8095755.985 10 0 59909 13500.00000 0 -24521661.552 4921489.120 5024214.518 10 0 59909 14400.00000 0 -24924989.588 5110066.320 1855088.415 10 0 59909 15300.00000 0 -24929393.893 5248056.909 -1350069.067 10 0 59909 16200.00000 0 -24545029.555 5281608.666 -4529012.438 10 0 59909 17100.00000 0 -23794773.355 5160622.686 -7620014.240 10 0 59909 18000.00000 0 -22713225.851 4841117.837 -10563064.426 10 0 59909 18900.00000 0 -21345241.656 4287339.973 -13301035.305 10 0 59909 19800.00000 0 -19744049.959 3473526.164 -15780789.344 10 0 59909 20700.00000 0 -17969044.538 2385248.877 -17954208.219 10 0 59909 21600.00000 0 -16083336.029 1020282.717 -19779123.450 10 0 59909 22500.00000 0 -14151168.925 -611043.592 -21220130.975 10 0 59909 23400.00000 0 -12235311.186 -2486025.674 -22249274.308 10 0 59909 24300.00000 0 -10394525.080 -4570286.061 -22846583.695 10 0 59909 25200.00000 0 -8681224.252 -6818972.692 -23000461.299 10 0 59909 26100.00000 0 -7139414.095 -9178404.526 -22707905.380 10 0 59909 27000.00000 0 -5803000.497 -11588096.991 -21974569.348 10 0 59909 27900.00000 0 -4694536.638 -13983084.176 -20814654.508 10 0 59909 28800.00000 0 -3824459.387 -16296442.142 -19250638.341 10 0 59909 29700.00000 0 -3190846.338 -18461909.341 -17312843.125 10 0 59909 30600.00000 0 -2779702.949 -20416495.758 -15038852.600 10 0 59909 31500.00000 0 -2565767.118 -22102972.499 -12472787.381 10 0 59909 32400.00000 0 -2513796.792 -23472138.266 -9664452.494 10 0 59909 33300.00000 0 -2580285.903 -24484768.118 -6668373.030 10 0 59909 34200.00000 0 -2715535.799 -25113162.857 -3542736.401 10 0 59909 35100.00000 0 -2865994.127 -25342233.990 -348261.594 10 0 59909 36000.00000 0 -2976761.707 -25170078.527 2852982.467 10 0 59909 36900.00000 0 -2994160.630 -24608019.300 5998786.043 10 0 59909 37800.00000 0 -2868254.074 -23680109.004 9028011.206 10 0 59909 38700.00000 0 -2555210.279 -22422118.772 11881783.865 10 0 59909 39600.00000 0 -2019409.723 -20880053.909 14504641.352 10 0 59909 40500.00000 0 -1235205.363 -19108259.293 16845612.881 10 0 59909 41400.00000 0 -188260.563 -17167194.139 18859211.601 10 0 59909 42300.00000 0 1123592.756 -15120969.712 20506318.813 10 0 59909 43200.00000 0 2690012.974 -13034753.202 21754943.313 10 0 59909 44100.00000 0 4488340.044 -10972146.396 22580841.400 10 0 59909 45000.00000 0 6484312.181 -8992648.570 22967985.792 10 0 59909 45900.00000 0 8633278.980 -7149309.208 22908874.817 10 0 59909 46800.00000 0 10881861.251 -5486667.901 22404676.166 10 0 59909 47700.00000 0 13169989.058 -4039066.738 21465202.707 10 0 59909 48600.00000 0 15433233.774 -2829404.622 20108720.931 10 0 59909 49500.00000 0 17605337.548 -1868384.496 18361595.693 10 0 59909 50400.00000 0 19620835.227 -1154283.838 16257778.037 10 0 59909 51300.00000 0 21417659.754 -673256.777 13838145.786 10 0 59909 52200.00000 0 22939622.637 -400153.980 11149709.432 10 0 59909 53100.00000 0 24138665.966 -299824.725 8244698.586 10 0 59909 54000.00000 0 24976792.007 -328845.237 5179546.598 10 0 59909 54900.00000 0 25427589.649 -437599.443 2013793.053 10 0 59909 55800.00000 0 25477293.875 -572623.397 -1191074.290 10 0 59909 56700.00000 0 25125333.930 -679113.484 -4372815.392 10 0 59909 57600.00000 0 24384347.419 -703491.619 -7469648.081 10 0 59909 58500.00000 0 23279659.921 -595918.266 -10421448.538 10 0 59909 59400.00000 0 21848252.233 -312646.418 -13170918.530 10 0 59909 60300.00000 0 20137258.776 181883.552 -15664696.603 10 0 59909 61200.00000 0 18202060.288 913297.162 -17854391.597 10 0 59909 62100.00000 0 16104050.755 1895961.514 -19697518.668 10 0 59909 63000.00000 0 13908171.843 3132139.851 -21158320.079 10 0 59909 63900.00000 0 11680317.678 4611661.289 -22208455.246 10 0 59909 64800.00000 0 9484717.775 6312120.519 -22827547.330 10 0 59909 65700.00000 0 7381406.596 8199600.168 -23003576.267 10 0 59909 66600.00000 0 5423884.460 10229886.739 -22733111.033 10 0 59909 67500.00000 0 3657066.286 12350130.558 -22021376.919 10 0 59909 68400.00000 0 2115602.649 14500881.701 -20882156.464 10 0 59909 69300.00000 0 822642.188 16618418.096 -19337525.782 10 0 59909 70200.00000 0 -210913.983 18637269.717 -17417430.906 10 0 59909 71100.00000 0 -986635.667 20492834.428 -15159111.739 10 0 59909 72000.00000 0 -1518256.182 22123976.765 -12606384.168 10 0 59909 72900.00000 0 -1830847.905 23475501.427 -9808793.570 10 0 59909 73800.00000 0 -1959516.105 24500398.062 -6820655.594 10 0 59909 74700.00000 0 -1947666.686 25161763.126 -3700002.578 10 0 59909 75600.00000 0 -1844921.635 25434317.952 -507455.909 10 0 59909 76500.00000 0 -1704770.877 25305458.885 2694953.636 10 0 59909 77400.00000 0 -1582060.578 24775794.913 5844994.216 10 0 59909 78300.00000 0 -1530424.966 23859149.826 8881445.965 10 0 59909 79200.00000 0 -1599771.237 22582028.469 11745294.607 10 0 59909 80100.00000 0 -1833924.862 20982569.316 14380881.810 10 0 59909 81000.00000 0 -2268535.792 19109027.239 16736989.495 10 0 59909 81900.00000 0 -2929335.015 17017850.057 18767836.761 10 0 59909 82800.00000 0 -3830815.929 14771429.506 20433969.874 10 0 59909 83700.00000 0 -4975397.067 12435620.746 21703028.162 10 0 59909 84600.00000 0 -6353102.331 10077133.947 22550371.207 10 0 59909 85500.00000 0 -7941773.045 7760906.728 22959555.465 10 0 59910 0.00000 0 -9707803.695 5547566.825 22922651.508 10 0 59910 900.00000 0 -11607372.387 3491089.008 22440395.989 10 0 59910 1800.00000 0 -13588112.901 1636746.140 21522175.772 10 0 59910 2700.00000 0 -15591162.400 19434.842 20185844.610 10 0 59910 3600.00000 0 -17553497.512 -1337552.514 18457375.861 10 0 59910 4500.00000 0 -19410462.625 -2423260.596 16370357.890 10 0 59910 5400.00000 0 -21098384.985 -3239279.169 13965341.743 10 0 59910 6300.00000 0 -22557167.526 -3799419.042 11289053.432 10 0 59910 7200.00000 0 -23732751.037 -4128870.770 8393485.989 10 0 59910 8100.00000 0 -24579342.593 -4262882.727 5334888.771 10 0 59910 9000.00000 0 -25061316.812 -4245015.423 2172673.611 10 0 59910 9900.00000 0 -25154710.041 -4125046.685 -1031740.713 10 0 59910 10800.00000 0 -24848244.703 -3956617.172 -4216123.001 10 0 59910 11700.00000 0 -24143840.680 -3794716.532 -7318639.644 10 0 59910 12600.00000 0 -23056592.203 -3693117.240 -10279056.155 10 0 59910 13500.00000 0 -21614211.218 -3701865.245 -13039906.631 10 0 59910 14400.00000 0 -19855960.524 -3864934.047 -15547608.301 10 0 59910 15300.00000 0 -17831121.379 -4218141.771 -17753499.406 10 0 59910 16200.00000 0 -15597059.633 -4787419.592 -19614780.540 10 0 59910 17100.00000 0 -13216970.959 -5587504.985 -21095341.566 10 0 59910 18000.00000 0 -10757399.050 -6621115.329 -22166458.509 10 0 59910 18900.00000 0 -8285629.710 -7878637.242 -22807347.546 10 0 59910 19800.00000 0 -5867068.673 -9338345.531 -23005565.884 10 0 59910 20700.00000 0 -3562711.535 -10967143.435 -22757252.167 10 0 59910 21600.00000 0 -1426810.051 -12721794.267 -22067202.015 10 0 59910 22500.00000 0 495169.147 -14550594.053 -20948777.254 10 0 59910 23400.00000 0 2168209.440 -16395416.315 -19423650.333 10 0 59910 24300.00000 0 3568964.439 -18194044.539 -17521388.486 10 0 59910 25200.00000 0 4686483.659 -19882695.741 -15278885.039 10 0 59910 26100.00000 0 5522414.202 -21398630.115 -12739648.278 10 0 59910 27000.00000 0 6090670.929 -22682737.949 -9952960.987 10 0 59910 27900.00000 0 6416589.786 -23681995.499 -6972926.419 10 0 59910 28800.00000 0 6535600.622 -24351686.620 -3857418.915 10 0 59910 29700.00000 0 6491476.172 -24657296.534 -666959.419 10 0 59910 30600.00000 0 6334231.865 -24575997.569 2536462.162 10 0 59910 31500.00000 0 6117765.912 -24097663.815 5690594.461 10 0 59910 32400.00000 0 5897340.290 -23225371.360 8734138.054 10 0 59910 33300.00000 0 5727010.030 -21975362.449 11607940.654 10 0 59910 34200.00000 0 5657110.376 -20376474.584 14256150.185 10 0 59910 35100.00000 0 5731908.959 -18469058.108 16627302.935 10 0 59910 36000.00000 0 5987523.010 -16303427.345 18675325.302 10 0 59910 36900.00000 0 6450190.350 -13937909.969 20360429.545 10 0 59910 37800.00000 0 7134967.796 -11436576.003 21649886.205 10 0 59910 38700.00000 0 8044912.577 -8866741.024 22518658.494 10 0 59910 39600.00000 0 9170781.808 -6296347.525 22949886.619 10 0 59910 40500.00000 0 10491263.398 -3791333.117 22935213.076 10 0 59910 41400.00000 0 11973729.335 -1413094.558 22474942.944 10 0 59910 42300.00000 0 13575480.426 783847.453 21578036.340 10 0 59910 43200.00000 0 15245430.973 2753886.476 20261933.315 10 0 59910 44100.00000 0 16926163.420 4461987.677 18552214.576 10 0 59910 45000.00000 0 18556267.377 5884896.357 16482104.498 10 0 59910 45900.00000 0 20072865.464 7011848.530 14091825.842 10 0 59910 46800.00000 0 21414220.389 7844755.188 11427818.429 10 0 59910 47700.00000 0 22522314.037 8397853.831 8541836.782 10 0 59910 48600.00000 0 23345290.354 8696843.258 5489944.087 10 0 59910 49500.00000 0 23839659.358 8777539.271 2331422.008 10 0 59910 50400.00000 0 23972169.410 8684109.070 -872382.283 10 0 59910 51300.00000 0 23721268.861 8466959.902 -4059249.210 10 0 59910 52200.00000 0 23078095.293 8180372.059 -7167296.578 10 0 59910 53100.00000 0 22046950.530 7879977.031 -10136182.052 10 0 59910 54000.00000 0 20645241.174 7620188.074 -12908274.778 10 0 59910 54900.00000 0 18902886.876 7451692.308 -15429773.177 10 0 59910 55800.00000 0 16861220.889 7419110.669 -17651747.173 10 0 59910 56700.00000 0 14571428.604 7558924.835 -19531084.818 10 0 59910 57600.00000 0 12092588.915 7897758.797 -21031325.333 10 0 59910 58500.00000 0 9489399.723 8451087.752 -22123362.848 10 0 59910 59400.00000 0 6829681.746 9222428.964 -22786007.784 10 0 59910 60300.00000 0 4181763.741 10203049.090 -23006395.561 10 0 59910 61200.00000 0 1611857.098 11372200.808 -22780235.092 10 0 59910 62100.00000 0 -818472.080 12697879.588 -22111892.561 10 0 59910 63000.00000 0 -3054629.454 14138069.773 -21014308.869 10 0 59910 63900.00000 0 -5051021.725 15642428.649 -19508752.139 10 0 59910 64800.00000 0 -6772705.418 17154338.918 -17624409.671 10 0 59910 65700.00000 0 -8196587.509 18613244.413 -15397826.615 10 0 59910 66600.00000 0 -9312128.718 19957171.809 -12872201.636 10 0 59910 67500.00000 0 -10121521.003 21125332.979 -10096552.533 10 0 59910 68400.00000 0 -10639332.662 22060698.940 -7124767.450 10 0 59910 69300.00000 0 -10891636.717 22712437.091 -4014559.780 10 0 59910 70200.00000 0 -10914660.031 23038108.913 -826346.901 10 0 59910 71100.00000 0 -10753010.860 23005535.031 2377925.381 10 0 59910 72000.00000 0 -10457560.391 22594248.402 5535989.428 10 0 59910 72900.00000 0 -10083068.579 21796473.649 8586469.486 10 0 59910 73800.00000 0 -9685655.419 20617590.426 11470078.376 10 0 59910 74700.00000 0 -9320225.406 19076060.625 14130773.250 10 0 59910 75600.00000 0 -9037954.785 17202821.707 16516847.505 10 0 59910 76500.00000 0 -8883948.529 15040171.020 18581937.335 10 0 59910 77400.00000 0 -8895166.571 12640187.364 20285923.180 10 0 59910 78300.00000 0 -9098707.361 10062755.379 21595708.658 10 0 59910 79200.00000 0 -9510521.557 7373274.809 22485862.110 10 0 59910 80100.00000 0 -10134610.432 4640149.829 22939108.592 10 0 59910 81000.00000 0 -10962743.103 1932162.484 22946663.210 10 0 59910 81900.00000 0 -11974704.853 -684161.058 22508399.673 10 0 59910 82800.00000 0 -13139066.509 -3147082.518 21632851.049 10 0 59910 83700.00000 0 -14414442.953 -5401977.334 20337042.902 10 0 59910 84600.00000 0 -15751188.387 -7403358.561 18646162.000 10 0 59910 85500.00000 0 -17093457.515 -9116515.529 16593066.943 99